CDT,Max TemperatureF,Mean TemperatureF,Min TemperatureF,Max Dew PointF,MeanDew PointF,Min DewpointF,Max Humidity, Mean Humidity, Min Humidity, Max Sea Level PressureIn, Mean Sea Level PressureIn, Min Sea Level PressureIn, Max VisibilityMiles, Mean VisibilityMiles, Min VisibilityMiles, Max Wind SpeedMPH, Mean Wind SpeedMPH, Max Gust SpeedMPH,PrecipitationIn, CloudCover, Events, WindDirDegrees
2013-4-1,45,37,28,32,21,15,82,57,31,30.34,30.26,30.10,10,10,10,23,12,28,0.00,3,Snow,6
2013-4-2,52,36,20,23,18,15,84,54,24,30.39,30.33,30.28,10,10,10,10,3,17,0.00,0,,54
2013-4-3,52,42,32,26,22,20,69,50,30,30.40,30.34,30.27,10,10,10,14,5,17,0.00,0,,104
2013-4-4,65,46,26,37,27,23,85,55,24,30.27,30.16,30.06,10,10,8,13,3,23,0.00,0,,325
2013-4-5,71,56,41,39,35,30,67,48,28,30.20,30.04,29.82,10,10,9,23,12,29,0.00,0,,137
2013-4-6,74,62,49,46,41,34,71,50,29,29.81,29.72,29.63,10,10,10,30,15,36,0.00,0,,218
2013-4-7,77,58,39,53,44,34,89,58,26,29.88,29.77,29.67,10,9,1,26,8,31,0.94,4,Rain-Thunderstorm,141
2013-4-8,75,63,50,61,56,50,100,80,60,29.74,29.69,29.65,10,9,7,18,7,22,0.00,7,,173
2013-4-9,77,59,41,61,56,44,86,72,58,29.79,29.71,29.62,10,10,7,37,13,44,0.10,7,Rain,181
2013-4-10,46,42,37,43,39,36,92,87,82,29.95,29.84,29.74,10,6,2,25,12,29,0.80,8,Rain-Thunderstorm,317
2013-4-11,39,37,34,36,29,25,92,76,59,29.81,29.76,29.73,10,10,5,21,13,28,T,8,,272
2013-4-12,50,41,32,30,28,25,82,64,46,30.05,29.88,29.76,10,10,10,21,11,26,0.00,7,,295
2013-4-13,60,44,28,38,32,26,92,66,40,30.09,29.95,29.70,10,10,10,18,8,25,0.00,2,,138
2013-4-14,72,60,48,53,44,32,71,57,43,29.70,29.55,29.45,10,10,10,37,16,47,0.03,4,Rain,214
2013-4-15,53,46,38,37,30,25,76,57,38,30.05,29.89,29.73,10,10,10,18,8,23,0.00,7,,353
2013-4-16,49,43,36,33,30,28,82,66,49,30.21,30.14,30.05,10,10,10,18,12,23,0.00,7,,45
2013-4-17,49,46,43,48,43,33,93,77,60,30.12,29.83,29.67,10,6,1,28,11,33,0.82,8,Rain-Thunderstorm,38
2013-4-18,43,39,34,41,34,26,100,82,64,29.94,29.75,29.62,10,8,2,29,19,38,0.22,8,Rain-Thunderstorm,321
2013-4-19,52,41,30,26,24,21,72,53,33,30.13,29.99,29.91,10,10,10,26,15,33,0.00,3,,307
2013-4-20,55,40,24,28,24,22,88,58,28,30.29,30.21,30.15,10,10,2,16,7,23,0.00,3,,115
2013-4-21,68,56,43,42,37,29,61,47,32,30.21,30.15,30.09,10,10,10,26,13,32,0.00,4,,172
2013-4-22,68,54,39,50,42,37,96,67,37,30.12,30.04,29.94,10,9,3,26,13,33,0.22,5,Rain,190
2013-4-23,41,37,32,35,30,27,92,78,64,30.21,30.14,30.10,10,6,0,25,15,32,0.29,8,Fog-Rain-Snow,350
2013-4-24,56,42,27,35,28,22,85,59,32,30.29,30.22,30.14,10,10,10,20,8,25,0.00,2,,264
2013-4-25,69,50,31,39,34,28,96,62,27,30.32,30.23,30.13,10,10,3,20,8,23,0.00,1,,184
2013-4-26,58,54,50,48,45,39,83,67,51,30.24,30.19,30.14,10,10,10,28,12,33,T,8,Rain,169
2013-4-27,61,52,42,46,45,44,93,74,55,30.22,30.13,30.01,10,10,10,9,4,12,0.00,7,,99
2013-4-28,77,57,36,51,44,36,100,68,36,30.01,29.93,29.77,10,5,0,20,8,24,0.00,1,Fog,178
2013-4-29,85,70,54,60,56,50,83,62,40,29.79,29.68,29.58,10,10,10,22,13,31,0.00,0,,190
2013-4-30,86,76,65,54,52,50,56,45,34,29.78,29.68,29.59,10,10,10,29,17,37,0.00,0,,191